Regional Weather Roundup
Issued by NWS

Home | Current Version | Previous Version | Text Only | Print | Product List | Glossary On
Versions: 1 2 3 4 5 6 7 8 9 10 11 12 13 14 15 16 17 18 19 20 21 22 23 24 25 26 27 28 29 30 31 32 33 34 35 36 37 38 39 40 41 42 43 44 45 46 47 48 49 50
000
ASUS42 KKEY 221610
RWRKEY

FLORIDA REGIONAL WEATHER ROUNDUP FOR THE FLORIDA KEYS
NATIONAL WEATHER SERVICE KEY WEST FLORIDA
1200 PM EDT SAT JUL 22 2017

...SOUTH FLORIDA AND THE KEYS...

CITY           SKY/WX    TMP DP  RH WIND       PRES   REMARKS
FORT MYERS     TSTM      76  75  97 CALM      30.13R
SW REGIONAL AP TSTM      74  73  97 N9G21     30.13R VSB 1
NAPLES         CLOUDY    83  74  74 SW9       30.09F
MIAMI          CLOUDY    91  75  59 SE8       30.11S HX 101
WEST KENDALL   MOSUNNY   90  75  61 E10       30.11S HX 100
HOMESTEAD      MOSUNNY   89  80  74 E7        30.10S HX 105
MARATHON       MOSUNNY   89  79  72 SE10      30.09S HX 104
BOCA CHICA NAS CLOUDY    89  80  74 S13       30.10S HX 106
KEY WEST INTL  MOSUNNY   88  78  72 S12       30.10S HX 101

...INTERNATIONAL WEATHER...

CITY           SKY/WX    TMP DP  RH WIND       PRES   REMARKS
NASSAU BAHAMAS PTSUNNY   88  75  66 E8        30.11F HX  97
CANCUN MEXICO  PTSUNNY   88  79  74 NE7       30.06S HX 102
COZUMEL MEXICO PTSUNNY   90  79  70 E10       30.03S HX 105

ADJACENT COASTAL WATERS...

STATION/POSITION TIME  SKY/WX   TEMP    WIND        PRES    WAVE
                                AIR SEA DIR/SP/G            HT/PER
                 (UTC)          (F)     (DEG/KT/KT) (MB)    (FT/S)
PULASKI SHOAL LI 1600            86     150/  9/ 10 1019.5F
SAND KEY         1550            84     160/ 12/ 14 1019.8R
LONG KEY         NOT AVBL
MOLASSES REEF    1500            84 86  130/ 11/ 13 1019.6R
FOWEY ROCKS      1500            84 85  130/  8/  9 1020.2R
Buoy 42097       1530               87                N/A     1/ 3

$$



USA.gov is the U.S. government's official web portal to all federal, state and local government web resources and services.